SARAL (39086 NORAD) Tracking and Keplerian Element Data

This shows tracking and keplerian element data for the satellite.

Feedback or suggestion? Click here.




ElementValue
Catalog39086
NameSARAL
Epoch Orbit31709
Epoch Day80.92106852
Epoch Year2019
RAAN268.483
Inclination98.5412
Eccentricity0.000189
Argument of Perigee122.1418
Mean Anonmoly237.995
Mean Motion14.32033782
Decay Rate-1.7E-07
L11 39086U 13009A 19080.92106852 -.00000017 00000-0 10035-4 0 9992
L22 39086 98.5412 268.4830 0001890 122.1418 237.9950 14.32033782317093

Live tracking and technical data element details for SARAL (NORAD 39086). SARAL can be tracked NOW for your location showing map with azimuth and elevation plus other details from your city location.

Track the satellite on the map from your city or location and see movement details for azimuth, elevation, latitude, longitude, range, height, and movement on the map or in text.







IsCatalogInMostPopularTable: catalog: 39086, numindb: 227
Update: records affected: 1



GetName: 39086 SARAL

Hit Count: updated at: Sat, 23 Mar 2019 03:14:43 GMT